Tracking 19164 objects as of 22-May-2018
HD Live streaming from Space Station
objects crossing your sky now

WASEDA-SAT3

Track WASEDA-SAT3 now!
10-day predictions
WASEDA-SAT3 is classified as:


NORAD ID: 41933
Int'l Code: 1998-067KV
Perigee: 333.4 km
Apogee: 340.3 km
Inclination: 51.6 °
Period: 91.1 minutes
Semi major axis: 6707 km
RCS: Unknown
Launch date: November 20, 1998
Source: Japan (JPN)
Launch site: TYURATAM MISSILE AND SPACE COMPLEX (TTMTR)
Uplink (MHz):
Downlink (MHz):
Beacon (MHz):
Mode:
Call sign:
Status:

aabbcc
Your satellite tracking list
Your tracking list is empty




NASA's NSSDC Master Catalog

Two Line Element Set (TLE):
1 41933U 98067KV  18141.36410715 +.00038147 +00000-0 +20101-3 0  9992
2 41933 051.6347 112.9675 0005134 079.2684 280.8895 15.80263127076613
Source of the keplerian elements: AFSPC